Weather History for Lawrence, KS

Change the Weather History Date:

Saturday, September 14, 2013

  Actual Average Record
Temperature  
Mean Temperature 64 °F 69 °F  
Max Temperature 82 °F 82 °F 91 °F (2004)
Min Temperature 46 °F 56 °F 42 °F (1999)
Degree Days  
Heating Degree Days 1 1  
Month to date heating degree days 1 7  
Since 1 July heating degree days 1 10  
Cooling Degree Days 0 5  
Month to date cooling degree days 164 98  
Year to date cooling degree days 1385 1289  
Growing Degree Days 14 (Base 50)    
Moisture  
Dew Point 49 °F    
Average Humidity 63    
Maximum Humidity 93    
Minimum Humidity 33    
Precipitation  
Precipitation 0.00 in 0.11 in 0.86 in (2010)
Month to date precipitation 0.03 2.19  
Year to date precipitation 20.31 30.05  
Sea Level Pressure  
Sea Level Pressure 30.03 in    
Wind  
Wind Speed 7 mph (SE)    
Max Wind Speed 16 mph    
Max Gust Speed 23 mph    
Visibility 10 miles    
Events      
T = Trace of Precipitation, MM = Missing Value Source: NWS Daily Summary

Daily Weather History Graph

Daily Weather History Graph

Search for Another Location

Airport:

Trip Planner

Search our weather history database for the weather conditions in past years. The results will help you decide how hot, cold, wet, or windy it might be!

Date:

Astronomy

Sep. 14, 2013 Rise Set
Actual Time 7:01 AM CDT 7:30 PM CDT
Civil Twilight 6:34 AM CDT 7:57 PM CDT
Nautical Twilight 6:03 AM CDT 8:28 PM CDT
Astronomical Twilight 5:30 AM CDT 9:00 PM CDT
Moon 4:10 PM CDT (9/14) 1:36 AM CDT (9/14)
Length of Visible Light 13h 22m
Length of Day
12h 28m
Waxing Gibbous, 72% of the Moon is Illuminated
Sep 14
Waxing Gibbous
Sep 19
Full
Sep 26
Last Quarter
Oct 4
New
Oct 11
First Quarter

Hourly Weather History & Observations

Time (CDT) Temp. Dew Point Humidity Pressure Visibility Wind Dir Wind Speed Gust Speed Precip Events Conditions
12:52 AM 51.1 °F 48.0 °F 89% 30.08 in 10.0 mi Calm Calm - N/A   Clear
1:52 AM 48.9 °F 46.0 °F 90% 30.09 in 10.0 mi Calm Calm - N/A   Clear
2:52 AM 48.0 °F 45.0 °F 89% 30.08 in 10.0 mi Calm Calm - N/A   Clear
3:52 AM 46.9 °F 44.1 °F 90% 30.08 in 10.0 mi Calm Calm - N/A   Clear
4:52 AM 46.9 °F 43.0 °F 86% 30.08 in 10.0 mi ESE 3.5 mph - N/A   Clear
5:52 AM 48.0 °F 44.1 °F 86% 30.09 in 10.0 mi East 4.6 mph - N/A   Clear
6:52 AM 50.0 °F 46.0 °F 86% 30.09 in 10.0 mi East 5.8 mph - N/A   Clear
7:52 AM 53.1 °F 48.0 °F 83% 30.11 in 10.0 mi East 4.6 mph - N/A   Clear
8:52 AM 60.1 °F 50.0 °F 69% 30.11 in 10.0 mi SE 6.9 mph - N/A   Clear
9:52 AM 66.9 °F 50.0 °F 54% 30.10 in 10.0 mi SE 8.1 mph - N/A   Clear
10:52 AM 72.0 °F 51.1 °F 48% 30.09 in 10.0 mi SSE 11.5 mph - N/A   Clear
11:52 AM 75.9 °F 52.0 °F 43% 30.09 in 10.0 mi SSW 13.8 mph - N/A   Clear
12:52 PM 77.0 °F 51.1 °F 40% 30.06 in 10.0 mi SE 12.7 mph - N/A   Clear
1:52 PM 81.0 °F 51.1 °F 35% 30.03 in 10.0 mi South 12.7 mph - N/A   Clear
2:52 PM 81.0 °F 48.9 °F 33% 30.00 in 10.0 mi SSE 13.8 mph 17.3 mph N/A   Clear
3:52 PM 82.0 °F 50.0 °F 33% 29.99 in 10.0 mi South 10.4 mph - N/A   Clear
4:52 PM 81.0 °F 48.9 °F 33% 29.96 in 10.0 mi SSE 10.4 mph - N/A   Clear
5:52 PM 78.1 °F 50.0 °F 37% 29.96 in 10.0 mi SSE 10.4 mph - N/A   Clear
6:52 PM 75.9 °F 51.1 °F 42% 29.96 in 10.0 mi SSE 8.1 mph - N/A   Clear
7:52 PM 70.0 °F 53.1 °F 55% 29.95 in 10.0 mi SE 4.6 mph - N/A   Clear
8:52 PM 66.9 °F 53.1 °F 61% 29.95 in 10.0 mi SE 6.9 mph - N/A   Clear
9:52 PM 68.0 °F 53.1 °F 59% 29.95 in 10.0 mi SE 5.8 mph - N/A   Clear
10:52 PM 66.9 °F 54.0 °F 63% 29.94 in 10.0 mi SE 5.8 mph - N/A   Clear
11:52 PM 66.9 °F 53.1 °F 61% 29.94 in 10.0 mi SE 6.9 mph - N/A   Clear